Date,TemperatureHighF,TemperatureAvgF,TemperatureLowF,DewpointHighF,DewpointAvgF,DewpointLowF,HumidityHigh,HumidityAvg,HumidityLow,PressureMaxIn,PressureMinIn,WindSpeedMaxMPH,WindSpeedAvgMPH,GustSpeedMaxMPH,PrecipitationSumIn
2013-1-1,23,15,-1,1,-5,-7,78,41,29,0.00,40.00,13,8,28,0.00
2013-1-2,25,15,5,-3,-6,-10,52,40,27,0.00,40.00,11,6,22,0.00
2013-1-3,43,16,-1,-2,-9,-16,58,38,8,0.00,40.00,5,3,12,0.00
2013-1-4,48,22,10,11,4,-4,67,48,20,0.00,40.00,5,2,11,0.00
2013-1-5,41,22,4,9,-4,-10,60,34,16,0.00,40.00,11,4,23,0.00
2013-1-6,50,29,7,6,-7,-19,42,24,7,0.00,40.00,13,5,27,0.00
2013-1-7,47,37,30,3,-6,-11,30,16,8,0.00,40.00,12,7,28,0.00
2013-1-8,35,32,28,15,10,-9,49,41,15,0.00,40.00,16,11,38,0.00
2013-1-9,54,39,29,12,8,1,44,30,14,0.00,40.00,16,6,28,0.00
2013-1-10,49,34,21,10,3,-4,53,30,11,0.00,40.00,8,3,23,0.00
2013-1-11,30,19,8,20,3,-13,78,50,30,0.00,40.00,16,9,40,0.00
2013-1-12,16,7,-2,-3,-12,-16,78,45,25,0.00,40.00,10,6,20,0.00
2013-1-13,10,-2,-11,-4,-9,-17,76,69,51,0.00,40.00,8,3,13,0.00
2013-1-14,16,0,-14,-4,-16,-21,73,51,27,0.00,40.00,12,4,23,0.00
2013-1-15,30,19,4,14,-2,-20,52,39,26,0.00,40.00,16,11,33,0.00
2013-1-16,47,31,17,16,13,7,72,47,29,0.00,40.00,14,8,31,0.00
2013-1-17,49,27,10,12,7,2,78,49,16,0.00,40.00,10,4,21,0.00
2013-1-18,44,36,32,6,2,0,27,24,20,0.00,40.00,16,12,35,0.00
2013-1-19,48,35,24,2,-1,-6,36,22,11,0.00,40.00,15,8,28,0.00
2013-1-20,43,34,21,7,0,-6,53,24,15,0.00,40.00,11,6,34,0.00
2013-1-21,42,34,21,7,2,-5,43,26,17,0.00,40.00,15,9,32,0.00
2013-1-22,50,41,36,-5,-11,-20,17,11,6,0.00,40.00,16,11,34,0.00
2013-1-23,56,45,38,-2,-9,-21,13,10,6,0.00,40.00,12,8,26,0.00
2013-1-24,49,44,39,25,7,-7,58,26,11,0.00,40.00,16,10,39,0.00
2013-1-25,48,41,37,25,23,20,55,48,38,0.00,40.00,16,10,33,0.00
2013-1-26,48,41,30,30,22,16,94,50,28,0.00,40.00,10,6,23,0.00
2013-1-27,46,36,27,28,22,14,97,60,31,0.00,40.00,14,6,31,0.00
2013-1-28,42,32,21,22,15,11,82,51,32,0.00,40.00,12,7,26,0.00
2013-1-29,23,16,11,17,-4,-9,88,42,24,0.00,40.00,10,7,26,0.00
2013-1-30,28,19,5,12,1,-10,65,45,31,0.00,40.00,17,11,38,0.00
2013-1-31,35,30,26,13,10,7,52,43,32,0.00,40.00,17,12,38,0.00
2013-2-1,34,30,28,17,12,8,57,47,34,0.00,40.00,18,11,36,0.00
2013-2-2,46,35,29,8,4,-1,41,28,15,0.00,40.00,15,9,33,0.00
2013-2-3,47,37,23,4,-4,-13,43,19,9,0.00,40.00,14,8,26,0.00
2013-2-4,42,34,27,10,4,-1,36,29,18,0.00,40.00,18,12,37,0.00
2013-2-5,48,38,32,18,14,8,43,36,28,0.00,40.00,16,10,31,0.00
2013-2-6,41,35,17,29,18,8,91,51,37,0.00,40.00,9,5,20,0.00
2013-2-7,41,24,9,13,2,-17,76,44,8,0.00,40.00,11,4,20,0.01
2013-2-8,47,27,12,5,-3,-7,43,29,12,0.00,40.00,9,3,17,0.01
2013-2-9,33,22,13,21,10,1,89,63,38,0.00,40.00,8,2,16,0.00
2013-2-10,27,20,8,10,3,-3,79,50,28,0.00,40.00,9,4,19,0.00
2013-2-11,23,13,4,14,6,-2,85,74,44,0.00,40.00,8,2,16,0.01
2013-2-12,36,23,14,3,-3,-16,47,33,20,0.00,40.00,18,9,31,0.01
2013-2-13,35,26,20,11,6,3,47,41,34,0.00,40.00,20,13,41,0.00
2013-2-14,35,23,12,15,10,7,84,57,31,0.00,40.00,11,6,28,0.00
2013-2-15,31,22,8,9,4,-2,88,48,25,0.00,40.00,15,7,43,0.00
2013-2-16,45,34,25,10,6,1,48,32,20,0.00,40.00,16,12,33,0.00
2013-2-17,48,36,23,9,0,-6,41,23,12,0.00,40.00,18,10,45,0.00
2013-2-18,30,23,18,4,-2,-7,48,34,22,0.00,40.00,15,8,31,0.00
2013-2-19,46,26,13,-1,-11,-27,42,22,5,0.00,40.00,10,4,22,0.00
2013-2-20,38,22,12,17,5,-4,89,51,23,0.00,40.00,9,3,16,0.00
2013-2-21,27,17,4,17,12,-1,89,80,64,0.00,40.00,7,2,13,0.12
2013-2-22,30,22,16,15,2,-3,58,43,32,0.00,40.00,13,9,33,0.05
2013-2-23,36,25,17,20,7,-3,88,46,34,0.00,40.00,19,11,40,0.00
2013-2-24,24,19,3,18,13,-1,91,78,57,0.00,40.00,4,2,11,0.01
2013-2-25,39,20,-3,11,1,-8,82,48,19,0.00,40.00,11,6,25,0.06
2013-2-26,29,24,18,19,8,2,80,51,36,0.00,40.00,11,6,23,0.02
2013-2-27,29,22,14,2,-4,-12,48,32,18,0.00,40.00,12,8,28,0.01
2013-2-28,36,25,18,7,0,-6,45,34,23,0.00,40.00,13,9,32,0.00
2013-3-1,42,34,25,18,9,-2,51,36,26,0.00,40.00,17,9,37,0.00
2013-3-2,48,39,33,20,18,14,54,43,31,0.00,40.00,14,10,30,0.00
2013-3-3,50,42,33,28,18,12,81,42,25,0.00,40.00,19,9,47,0.00
2013-3-4,38,26,18,30,12,-5,97,60,33,0.00,40.00,14,7,29,0.05
2013-3-5,46,31,16,0,-5,-12,45,23,10,0.00,40.00,13,8,30,0.03
2013-3-6,53,43,24,10,4,-7,28,20,13,0.00,40.00,12,7,31,0.00
2013-3-7,56,44,27,17,10,-1,59,28,10,0.00,40.00,12,7,32,0.00
2013-3-8,50,34,22,24,14,8,88,48,21,0.00,40.00,12,3,21,0.00
2013-3-9,33,26,18,27,20,4,95,77,45,0.00,40.00,5,2,14,0.12
2013-3-10,42,30,17,13,7,-3,60,38,25,0.00,40.00,13,8,26,0.03
2013-3-11,41,32,24,27,15,9,94,51,31,0.00,40.00,16,11,34,0.00
2013-3-12,43,30,20,25,19,17,94,68,35,0.00,40.00,14,6,34,0.11
2013-3-13,54,43,37,22,18,11,49,37,18,0.00,40.00,16,11,32,0.05
2013-3-14,59,48,41,20,15,9,37,28,16,0.00,40.00,15,10,34,0.00
2013-3-15,63,53,44,23,16,14,38,24,16,0.00,40.00,16,9,35,0.00
2013-3-16,50,40,30,29,22,15,74,49,27,0.00,40.00,11,6,26,0.00
2013-3-17,42,33,23,25,18,0,89,54,31,0.00,40.00,15,6,37,0.00
2013-3-18,35,27,20,18,3,-9,69,36,25,0.00,40.00,15,11,37,0.00
2013-3-19,41,32,23,7,-11,-27,45,17,5,0.00,40.00,19,12,41,0.00
2013-3-20,49,32,10,22,7,-12,77,39,13,0.00,40.00,14,8,33,0.00
2013-3-21,42,36,27,29,15,-6,74,44,20,0.00,40.00,17,9,37,0.00
2013-3-22,37,26,18,22,7,-3,90,49,19,0.00,40.00,14,8,32,0.00
2013-3-23,20,14,-2,15,8,-8,89,78,65,0.00,40.00,9,3,14,0.00
2013-3-24,26,9,-7,3,-4,-13,80,59,31,0.00,40.00,11,4,22,0.09
2013-3-25,34,16,-3,10,0,-10,76,52,23,0.00,40.00,9,4,21,0.08
2013-3-26,45,31,5,27,13,-2,78,47,32,0.00,40.00,12,6,28,0.10
2013-3-27,50,37,27,27,23,17,90,60,29,0.00,40.00,10,4,21,0.06
2013-3-28,56,47,35,29,23,17,74,41,22,0.00,40.00,7,4,19,0.00
2013-3-29,54,40,29,32,26,20,82,58,29,0.00,40.00,12,5,26,0.00
2013-3-30,53,43,30,34,22,-100,85,48,22,0.00,40.00,11,6,31,0.02
2013-3-31,58,42,22,26,14,-4,93,42,8,0.00,40.00,16,7,32,0.02
2013-4-1,45,34,21,33,24,16,97,70,41,0.00,40.00,12,3,17,0.00
2013-4-2,38,32,29,33,30,28,98,95,83,0.00,40.00,7,2,13,0.26
2013-4-3,54,37,17,35,24,15,97,65,24,0.00,40.00,9,2,22,0.33
2013-4-4,58,46,38,29,24,19,70,43,22,0.00,40.00,12,7,24,0.09
2013-4-5,59,47,36,33,22,16,83,40,24,0.00,40.00,14,6,34,0.01
2013-4-6,54,43,36,27,19,15,57,39,24,0.00,40.00,12,7,41,0.01
2013-4-7,48,40,34,32,26,20,94,58,37,0.00,40.00,13,6,30,0.04
2013-4-8,57,40,28,32,26,20,97,62,27,0.00,40.00,10,4,20,0.03
2013-4-9,28,17,7,27,12,2,95,80,62,0.00,40.00,9,6,15,0.06
2013-4-10,34,18,-4,19,6,-10,80,62,36,0.00,40.00,13,5,28,0.32
2013-4-11,45,36,26,28,18,6,67,48,40,0.00,40.00,12,7,28,0.03
2013-4-12,50,36,24,28,21,10,92,60,23,0.00,40.00,12,4,29,0.00
2013-4-13,54,39,22,33,20,12,97,54,21,0.00,40.00,20,9,48,0.10
2013-4-14,33,29,24,32,10,-2,97,50,27,0.00,40.00,15,7,33,0.23
2013-4-15,28,23,17,22,19,14,92,85,63,0.00,40.00,8,3,19,0.02
2013-4-16,32,23,16,22,18,13,92,83,60,0.00,40.00,6,2,10,0.30
2013-4-17,26,20,6,19,15,1,93,83,73,0.00,40.00,10,4,17,0.03
2013-4-18,29,14,-6,5,-1,-12,79,55,31,0.00,40.00,13,7,28,0.04
2013-4-19,40,30,21,20,13,4,58,48,37,0.00,40.00,17,11,32,0.11
2013-4-20,45,38,31,29,22,18,81,55,38,0.00,40.00,11,7,24,0.04
2013-4-21,46,38,30,27,21,17,80,52,35,0.00,40.00,13,6,34,0.00
2013-4-22,43,28,15,31,22,12,97,81,43,0.00,40.00,10,4,18,0.05
2013-4-23,32,21,12,20,13,7,87,71,49,0.00,40.00,7,4,14,0.34
2013-4-24,43,31,14,12,7,4,69,39,22,0.00,40.00,12,7,30,0.01
2013-4-25,57,41,25,24,10,3,68,31,18,0.00,40.00,11,6,25,0.00
2013-4-26,57,43,30,24,17,13,66,39,19,0.00,40.00,7,4,18,0.00
2013-4-27,61,46,30,23,16,11,59,34,14,0.00,40.00,10,6,21,0.00
2013-4-28,66,54,38,31,20,14,53,27,16,0.00,40.00,13,7,26,0.00
2013-4-29,68,54,35,33,23,15,77,36,15,0.00,40.00,16,7,32,0.00
2013-4-30,55,45,32,37,30,20,98,61,25,0.00,40.00,11,7,35,0.22
2013-5-1,32,26,7,32,22,3,98,85,64,0.00,40.00,8,5,15,0.30
2013-5-2,46,26,2,24,11,-3,84,58,27,0.00,40.00,7,4,16,0.56
2013-5-3,56,41,29,27,17,10,78,40,23,0.00,40.00,10,6,20,0.07
2013-5-4,47,38,25,28,25,21,83,62,37,0.00,40.00,9,3,18,0.00
2013-5-5,50,39,26,35,26,19,94,62,40,0.00,40.00,8,3,17,0.02
2013-5-6,56,44,31,35,31,27,95,64,35,0.00,40.00,10,3,15,0.04
2013-5-7,58,47,35,35,30,24,76,53,32,0.00,40.00,13,6,24,0.00
2013-5-8,57,40,32,37,34,30,98,81,37,0.00,40.00,8,3,22,0.61
2013-5-9,47,38,33,39,35,32,99,90,73,0.00,40.00,8,2,16,0.90
2013-5-10,59,44,31,35,27,-100,97,60,26,0.00,40.00,7,3,21,0.01
2013-5-11,61,46,31,37,30,-100,89,59,26,0.00,40.00,10,4,27,0.02
2013-5-12,69,56,42,34,28,25,66,37,21,0.00,40.00,10,6,25,0.02
2013-5-13,75,63,46,40,30,27,60,32,18,0.00,40.00,10,6,17,0.01
2013-5-14,73,61,47,38,32,27,61,36,20,0.00,40.00,10,6,21,0.00
2013-5-15,67,55,45,43,36,31,86,49,28,0.00,40.00,9,5,17,0.01
2013-5-16,70,52,44,41,18,-100,86,44,24,0.00,40.00,13,6,29,0.01
2013-5-17,75,56,40,36,21,-100,71,37,12,0.00,40.00,9,4,28,0.00
2013-5-18,62,52,42,40,26,16,59,38,20,0.00,40.00,10,6,26,0.10
2013-5-19,57,49,42,29,27,24,54,43,29,0.00,40.00,12,9,24,0.09
2013-5-20,54,47,41,34,28,21,76,49,36,0.00,40.00,11,7,24,0.00
2013-5-21,59,48,34,27,22,16,61,37,24,0.00,40.00,11,6,28,0.00
2013-5-22,64,51,32,44,31,23,91,51,21,0.00,40.00,9,4,20,0.07
2013-5-23,61,51,43,47,44,42,98,79,57,0.00,40.00,7,4,14,0.08
2013-5-24,75,57,37,44,29,16,91,46,11,0.00,40.00,10,4,20,0.00
2013-5-25,75,58,37,34,21,7,82,33,8,0.00,40.00,11,4,21,0.00
2013-5-26,75,59,47,32,22,14,53,27,10,0.00,40.00,10,6,20,0.00
2013-5-27,69,58,43,29,20,9,53,26,14,0.00,40.00,12,5,27,0.00
2013-5-28,68,54,36,39,26,20,67,38,16,0.00,40.00,9,3,22,0.00
2013-5-29,56,47,39,39,31,24,90,56,30,0.00,40.00,12,7,30,0.09
2013-5-30,53,47,40,31,23,16,65,41,23,0.00,40.00,22,13,51,0.01
2013-5-31,58,49,41,22,14,9,41,25,19,0.00,40.00,18,12,51,0.00
2013-6-1,59,50,43,35,27,-100,65,43,25,0.00,40.00,12,7,33,0.00
2013-6-2,74,53,29,33,28,22,86,47,14,0.00,40.00,9,4,21,0.00
2013-6-3,73,59,40,37,26,20,56,32,16,0.00,40.00,14,5,36,0.01
2013-6-4,65,51,34,45,34,19,80,53,35,0.00,40.00,10,5,18,0.01
2013-6-5,60,49,40,42,40,38,94,73,47,0.00,40.00,11,5,18,0.00
2013-6-6,67,52,32,38,34,29,93,58,27,0.00,40.00,9,3,25,0.00
2013-6-7,74,55,37,41,35,27,84,53,19,0.00,40.00,10,3,27,0.00
2013-6-8,72,63,45,43,33,28,70,33,20,0.00,40.00,12,7,30,0.00
2013-6-9,81,61,36,36,31,27,87,43,14,0.00,40.00,9,4,21,0.00
2013-6-10,85,70,51,39,31,23,47,26,12,0.00,40.00,8,4,34,0.00
2013-6-11,82,68,46,36,22,12,49,21,8,0.00,40.00,14,7,35,0.00
2013-6-12,84,68,46,42,25,16,47,22,11,0.00,40.00,12,5,25,0.00
2013-6-13,85,63,44,46,38,22,84,49,11,0.00,40.00,15,3,30,0.00
2013-6-14,79,64,47,43,33,13,67,39,8,0.00,40.00,11,4,24,0.00
2013-6-15,73,59,39,45,42,36,88,57,35,0.00,40.00,9,3,20,0.00
2013-6-16,74,58,43,45,35,25,88,47,16,0.00,40.00,12,5,31,0.00
2013-6-17,70,57,41,51,37,31,81,49,29,0.00,40.00,11,4,20,0.00
2013-6-18,75,60,42,46,40,31,91,54,20,0.00,40.00,8,3,20,0.00
2013-6-19,84,63,40,44,28,5,92,43,6,0.00,40.00,10,4,27,0.00
2013-6-20,78,59,43,30,21,13,34,24,11,0.00,40.00,6,4,19,0.00
2013-6-22,78,67,51,41,28,19,40,24,14,0.00,40.00,11,5,29,0.00
2013-6-23,75,59,39,45,33,21,53,37,29,0.00,40.00,10,4,24,0.00
2013-6-24,77,60,40,38,26,10,78,37,8,0.00,40.00,13,4,27,0.00
2013-6-25,75,66,53,36,29,22,47,25,19,0.00,40.00,11,7,30,0.00
2013-6-26,85,67,43,40,33,31,63,34,16,0.00,40.00,9,4,20,0.00
2013-6-27,89,72,52,40,31,22,48,26,9,0.00,40.00,9,4,23,0.00
2013-6-28,86,68,49,52,43,29,69,42,13,0.00,40.00,10,4,25,0.00
2013-6-29,76,61,47,56,48,38,84,65,25,0.00,40.00,10,3,20,0.06
2013-6-30,72,59,51,57,51,48,92,76,43,0.00,40.00,7,2,18,0.11
2013-7-1,70,58,42,53,47,38,95,70,40,0.00,40.00,8,3,17,0.16
2013-7-2,75,59,43,49,44,35,97,62,27,0.00,40.00,9,4,23,0.08
2013-7-3,78,60,41,50,41,36,89,55,27,0.00,40.00,12,4,26,0.03
2013-7-4,79,68,53,48,41,37,64,38,22,0.00,40.00,8,4,16,0.02
2013-7-5,79,64,51,52,46,41,83,55,28,0.00,40.00,11,4,27,0.01
2013-7-6,80,62,50,49,46,41,86,60,28,0.00,40.00,15,4,28,0.05
2013-7-7,79,65,49,51,46,41,93,56,27,0.00,40.00,10,4,26,0.12
2013-7-8,80,67,57,48,40,-100,68,40,24,0.00,40.00,10,7,31,0.01
2013-7-9,83,70,51,43,35,27,63,32,13,0.00,40.00,9,5,19,0.01
2013-7-10,81,66,47,49,40,-100,70,42,26,0.00,40.00,10,4,20,0.00
2013-7-11,89,70,50,48,43,32,76,45,15,0.00,40.00,7,3,22,0.00
2013-7-12,82,69,59,59,47,41,86,49,29,0.00,40.00,12,5,23,0.04
2013-7-13,79,64,53,55,51,46,95,66,32,0.00,40.00,8,3,19,0.34
2013-7-14,71,59,49,57,53,47,96,80,51,0.00,40.00,9,2,18,0.42
2013-7-15,74,60,53,57,54,52,97,82,56,0.00,40.00,8,2,16,0.09
2013-7-16,74,69,54,47,44,41,71,42,31,0.00,40.00,8,5,16,0.00
2013-7-17,81,65,46,51,47,42,91,58,34,0.00,40.00,8,3,16,0.00
2013-7-18,80,65,56,56,50,44,96,65,29,0.00,40.00,8,3,21,0.16
2013-7-19,75,62,49,57,52,47,97,73,44,0.00,40.00,8,3,17,0.07
2013-7-20,80,61,45,52,44,-100,88,60,25,0.00,40.00,10,3,18,0.00
2013-7-21,83,62,44,47,40,22,90,53,11,0.00,40.00,11,3,27,0.00
2013-7-22,85,62,51,35,26,17,46,29,9,0.00,40.00,10,4,26,0.00
2013-7-23,83,68,51,52,37,16,79,36,8,0.00,40.00,8,4,18,0.00
2013-7-24,78,61,49,57,50,45,94,70,42,0.00,40.00,6,2,18,0.12
2013-7-25,70,59,53,55,49,41,89,70,36,0.00,40.00,6,3,18,0.02
2013-7-26,76,61,43,47,44,41,91,56,33,0.00,40.00,9,3,25,0.02
2013-7-27,76,59,44,55,46,37,95,65,25,0.00,40.00,12,5,20,0.27
2013-7-28,70,57,52,56,53,48,98,86,45,0.00,40.00,8,3,17,0.31
2013-7-29,67,58,51,50,46,43,96,66,41,0.00,40.00,10,5,18,0.12
2013-7-30,76,62,48,49,45,40,93,59,27,0.00,40.00,12,5,25,0.04
2013-7-31,79,64,49,47,42,36,79,50,22,0.00,40.00,8,4,27,0.01
2013-8-1,79,64,46,47,43,37,87,52,22,0.00,40.00,9,4,20,0.01
2013-8-2,82,70,56,49,42,38,77,38,23,0.00,40.00,11,7,24,0.00
2013-8-3,82,64,51,54,45,35,84,55,20,0.00,40.00,13,5,26,0.00
2013-8-4,78,64,47,49,43,32,90,50,19,0.00,40.00,8,5,23,0.01
2013-8-5,79,65,52,49,41,38,68,43,23,0.00,40.00,10,6,19,0.01
2013-8-6,78,66,60,41,37,31,50,35,21,0.00,40.00,12,7,29,0.00
2013-8-7,67,57,45,46,40,34,85,55,34,0.00,40.00,6,2,14,0.02
2013-8-8,69,55,39,51,41,34,85,61,39,0.00,40.00,9,4,17,0.02
2013-8-9,70,53,41,49,44,37,91,73,37,0.00,40.00,6,2,19,0.58
2013-8-10,76,60,42,47,41,34,94,56,22,0.00,40.00,7,3,18,0.01
2013-8-11,71,58,48,49,45,38,91,64,41,0.00,40.00,7,2,17,0.20
2013-8-12,71,56,43,50,43,38,92,65,38,0.00,40.00,8,3,19,0.67
2013-8-13,61,52,42,50,43,-100,94,77,51,0.00,40.00,10,3,23,0.31
2013-8-14,74,55,41,45,39,-100,91,64,24,0.00,40.00,6,2,18,0.03
2013-8-15,79,55,44,45,24,-100,76,42,15,0.00,40.00,11,4,35,0.00
2013-8-16,79,62,44,42,35,-100,78,46,15,0.00,40.00,6,2,14,0.00
2013-8-17,81,63,46,42,32,-100,69,39,11,0.00,40.00,8,3,18,0.00
2013-8-18,82,68,54,47,36,31,53,32,16,0.00,40.00,10,5,25,0.00
2013-8-19,82,65,52,42,31,-100,62,36,17,0.00,40.00,10,4,19,0.00
2013-8-20,85,66,52,41,36,-100,61,37,15,0.00,40.00,8,4,16,0.00
2013-8-21,80,68,57,47,43,38,66,40,28,0.00,40.00,9,4,19,0.00
2013-8-22,75,59,48,56,49,43,95,72,43,0.00,40.00,5,2,15,0.18
2013-8-23,78,64,53,52,48,44,94,59,30,0.00,40.00,8,4,18,0.16
2013-8-24,74,61,47,52,43,-100,89,57,29,0.00,40.00,10,4,19,0.10
2013-8-25,77,61,48,57,48,44,89,67,35,0.00,40.00,7,3,17,0.11
2013-8-26,80,65,50,56,49,46,90,59,31,0.00,40.00,10,5,28,0.03
2013-8-27,78,62,52,56,50,47,90,69,35,0.00,40.00,6,2,15,0.04
2013-8-28,80,72,58,51,45,37,57,39,29,0.00,40.00,10,4,22,0.18
2013-8-29,82,65,52,55,46,40,84,53,25,0.00,40.00,9,3,17,0.28
2013-8-30,80,63,50,55,48,44,90,63,29,0.00,40.00,6,2,16,0.26
2013-8-31,81,64,51,56,44,-100,86,52,24,0.00,40.00,8,4,20,0.15
2013-9-1,72,57,46,56,50,44,93,77,54,0.00,40.00,7,2,12,0.25
2013-9-2,80,63,48,50,47,43,93,62,28,0.00,40.00,8,2,16,0.01
2013-9-3,84,68,54,52,46,42,79,49,23,0.00,40.00,7,4,17,0.00
2013-9-4,82,62,50,57,49,44,86,65,26,0.00,40.00,7,2,24,0.07
2013-9-5,85,65,51,55,49,45,85,60,26,0.00,40.00,7,2,13,0.01
2013-9-6,81,64,55,51,46,41,74,54,29,0.00,40.00,17,4,30,0.01
2013-9-7,82,65,49,49,44,-100,79,50,28,0.00,40.00,8,3,20,0.01
2013-9-8,80,61,48,55,46,41,89,62,29,0.00,40.00,6,2,14,0.03
2013-9-9,73,61,53,55,49,43,96,66,44,0.00,40.00,9,4,28,0.12
2013-9-10,57,54,51,53,52,49,97,93,84,0.00,40.00,6,3,14,0.48
2013-9-11,57,54,52,54,52,50,98,95,91,0.00,40.00,6,3,11,1.70
2013-9-12,58,53,50,55,52,49,98,95,87,0.00,40.00,7,2,13,5.94
2013-9-13,67,55,49,55,51,46,98,88,46,0.00,40.00,7,2,13,1.89
2013-9-14,67,53,44,49,44,-100,97,75,40,0.00,40.00,8,3,14,0.07
2013-9-15,51,49,47,49,48,46,98,95,85,0.00,40.00,6,1,10,0.55
2013-9-16,70,53,45,51,45,42,98,79,36,0.00,40.00,8,3,22,0.02
2013-9-17,73,61,47,46,39,28,83,48,19,0.00,40.00,12,6,23,0.00
2013-9-18,56,51,48,45,41,39,86,69,56,0.00,40.00,5,3,17,0.17
2013-9-19,57,49,41,44,40,37,95,74,53,0.00,40.00,7,4,25,0.19
2013-9-20,65,48,32,42,37,31,95,71,34,0.00,40.00,9,3,15,0.02
2013-9-21,72,58,39,38,31,-100,89,43,21,0.00,40.00,12,6,27,0.00
2013-9-22,62,51,43,45,40,33,96,68,41,0.00,40.00,11,4,25,0.16
2013-9-23,53,48,43,41,32,27,89,56,37,0.00,40.00,15,11,33,0.18
2013-9-24,67,53,46,29,24,6,48,35,12,0.00,40.00,15,9,27,0.00
2013-9-25,73,62,48,29,20,6,47,20,12,0.00,40.00,9,5,27,0.00
2013-9-26,63,48,36,41,36,29,92,63,42,0.00,40.00,10,3,16,0.00
2013-9-27,46,41,36,43,35,19,95,81,50,0.00,40.00,11,4,26,0.12
2013-9-28,55,43,35,26,19,-100,53,39,31,0.00,40.00,16,10,34,0.03
2013-9-29,63,53,46,24,18,14,42,25,19,0.00,40.00,16,10,34,0.00
2013-9-30,72,60,53,28,22,17,37,23,18,0.00,40.00,17,9,36,0.00
2013-10-1,62,51,43,42,40,38,87,69,47,0.00,40.00,7,2,15,0.00
2013-10-2,69,51,36,38,31,20,85,54,16,0.00,40.00,10,4,24,0.00
2013-10-3,61,46,33,40,33,23,95,66,24,0.00,40.00,10,5,18,0.14
2013-10-4,41,33,27,39,23,7,96,67,41,0.00,40.00,12,6,24,0.34
2013-10-5,46,37,28,12,7,0,50,31,18,0.00,40.00,17,11,35,0.01
2013-10-6,63,50,39,26,19,0,41,29,18,0.00,40.00,14,9,32,0.00
2013-10-7,68,57,47,24,14,9,36,19,10,0.00,40.00,13,8,26,0.00
2013-10-8,68,56,38,28,17,11,63,23,14,0.00,40.00,9,6,24,0.00
2013-10-9,61,48,37,37,30,23,80,51,29,0.00,40.00,9,4,19,0.00
2013-10-10,50,42,36,41,34,26,92,72,51,0.00,40.00,13,4,34,0.02
2013-10-11,48,40,35,29,26,22,74,57,37,0.00,40.00,15,10,36,0.03
2013-10-12,52,37,25,32,25,-100,94,69,29,0.00,40.00,10,3,20,0.01
2013-10-13,60,41,27,36,29,24,90,68,25,0.00,40.00,7,3,13,0.00
2013-10-14,46,40,34,35,28,22,90,65,44,0.00,40.00,12,5,29,0.04
2013-10-15,34,30,27,30,26,23,93,84,67,0.00,40.00,8,4,15,0.01
2013-10-16,45,34,21,24,16,8,90,52,24,0.00,40.00,12,6,29,0.02
2013-10-17,45,36,30,28,18,12,92,51,31,0.00,40.00,14,7,29,0.02
2013-10-18,37,30,19,28,16,10,94,60,35,0.00,40.00,11,5,24,0.23
2013-10-19,53,40,32,18,13,-100,46,35,22,0.00,40.00,17,11,33,0.02
2013-10-20,44,37,24,31,22,15,93,58,31,0.00,40.00,10,5,25,0.00
2013-10-21,47,34,20,22,19,15,91,58,35,0.00,40.00,12,5,25,0.04
2013-10-22,56,47,39,26,21,19,45,36,30,0.00,40.00,12,8,25,0.01
2013-10-23,61,48,30,31,23,19,83,41,20,0.00,40.00,10,6,22,0.00
2013-10-24,59,38,23,29,24,20,90,63,23,0.00,40.00,8,3,16,0.00
2013-10-25,64,42,26,26,22,20,79,52,19,0.00,40.00,10,4,19,0.00
2013-10-26,58,39,26,31,23,-100,81,58,30,0.00,40.00,9,3,16,0.00
2013-10-27,56,47,34,23,20,15,61,35,24,0.00,40.00,11,6,24,0.00
2013-10-28,39,32,26,29,25,21,97,78,57,0.00,40.00,7,3,12,0.00
2013-10-29,51,32,23,33,25,18,98,79,29,0.00,40.00,11,4,17,0.00
2013-10-30,42,34,31,33,22,15,96,61,42,0.00,40.00,15,7,32,0.11
2013-10-31,37,33,30,23,16,12,68,50,41,0.00,40.00,22,12,43,0.10
2013-11-1,41,36,31,27,18,12,80,50,33,0.00,40.00,11,7,26,0.00
2013-11-2,55,44,28,17,7,-100,63,25,9,0.00,40.00,15,10,36,0.00
2013-11-3,54,46,30,24,12,-8,78,28,8,0.00,40.00,13,8,40,0.00
2013-11-4,37,30,24,19,13,7,73,50,34,0.00,40.00,13,7,34,0.00
2013-11-5,32,25,20,22,6,-9,90,47,23,0.00,40.00,16,8,31,0.00
2013-11-6,37,29,21,17,10,-1,58,44,33,0.00,40.00,20,13,40,0.00
2013-11-7,52,41,33,19,17,15,51,38,25,0.00,40.00,13,8,29,0.00
2013-11-8,55,46,40,19,15,10,38,28,20,0.00,40.00,21,11,46,0.00
2013-11-9,57,42,27,23,17,-100,76,38,23,0.00,40.00,10,5,21,0.00
2013-11-10,57,46,27,21,17,14,76,34,21,0.00,40.00,11,6,23,0.00
2013-11-11,59,42,25,27,19,13,94,46,17,0.00,40.00,13,7,28,0.00
2013-11-12,55,37,21,25,22,8,92,62,20,0.00,40.00,10,4,17,0.00
2013-11-13,55,48,36,16,10,4,44,22,14,0.00,40.00,12,7,24,0.00
2013-11-14,49,41,30,23,16,8,58,37,23,0.00,40.00,12,7,23,0.00
2013-11-15,48,39,32,29,16,5,90,42,23,0.00,40.00,11,7,27,0.00
2013-11-16,40,32,28,28,19,-100,95,60,39,0.00,40.00,23,10,56,0.00
2013-11-17,39,33,26,21,15,8,82,48,35,0.00,40.00,20,12,45,0.00
2013-11-18,54,38,25,17,14,8,49,37,17,0.00,40.00,19,10,35,0.00
2013-11-19,45,41,38,27,17,3,64,38,20,0.00,40.00,12,8,29,0.00
2013-11-20,48,39,34,26,21,16,70,50,33,0.00,40.00,11,5,23,0.00
2013-11-21,36,15,6,26,10,1,89,80,57,0.00,40.00,7,4,14,0.00
2013-11-22,35,18,7,26,12,3,86,77,50,0.00,40.00,3,1,7,0.22
2013-11-23,31,21,12,21,15,-100,91,79,65,0.00,40.00,4,1,9,0.06
2013-11-24,45,28,14,34,23,11,97,83,55,0.00,40.00,3,1,11,0.13
2013-11-25,38,29,18,21,18,10,80,64,46,0.00,40.00,5,2,11,0.06
2013-11-26,48,28,16,18,14,10,78,58,25,0.00,40.00,7,3,15,0.01
2013-11-27,52,40,27,18,14,9,64,35,23,0.00,40.00,12,7,26,0.01
2013-11-28,53,29,19,23,17,13,80,64,28,0.00,40.00,6,2,10,0.00
2013-11-29,47,40,32,18,16,13,56,39,30,0.00,40.00,14,9,28,0.00
2013-11-30,43,36,30,17,13,-100,53,40,30,0.00,40.00,14,9,25,0.00
2013-12-1,42,35,31,24,17,13,70,48,35,0.00,40.00,24,11,49,0.00
2013-12-2,39,36,32,26,23,20,76,61,50,0.00,40.00,17,13,36,0.00
2013-12-3,37,29,7,27,18,2,86,65,48,0.00,40.00,11,6,27,0.00
2013-12-4,7,1,-11,2,-4,-17,80,75,69,0.00,40.00,6,3,10,0.00
2013-12-5,16,-3,-10,2,-11,-18,75,68,50,0.00,40.00,6,3,13,0.05
2013-12-6,12,-4,-14,0,-12,-21,77,68,51,0.00,40.00,8,2,18,0.03
2013-12-7,21,8,-3,6,-2,-100,81,67,46,0.00,40.00,7,2,10,0.00
2013-12-8,18,10,3,3,-5,-13,78,52,34,0.00,40.00,13,6,26,0.00
2013-12-9,15,7,-2,-5,-13,-18,53,38,23,0.00,40.00,19,12,40,0.00
2013-12-10,27,20,11,9,3,-6,60,48,40,0.00,40.00,26,14,51,0.00
2013-12-11,34,28,21,6,2,-4,45,33,20,0.00,40.00,17,12,37,0.01
2013-12-12,49,41,33,5,0,-8,24,18,14,0.00,40.00,16,11,33,0.01
2013-12-13,40,34,25,12,8,-2,49,34,18,0.00,40.00,13,9,29,0.00
2013-12-14,34,27,20,12,5,-100,57,40,30,0.00,40.00,18,10,36,0.00
2013-12-15,45,35,27,15,13,11,52,40,27,0.00,40.00,18,12,40,0.00
2013-12-16,47,40,36,16,12,5,41,32,23,0.00,40.00,19,12,40,0.00
2013-12-17,51,42,37,13,10,8,34,26,20,0.00,40.00,12,8,31,0.00
2013-12-18,51,45,39,13,8,6,34,22,18,0.00,40.00,16,10,35,0.00
2013-12-19,47,38,20,26,17,12,91,47,24,0.00,40.00,16,7,42,0.00
2013-12-20,36,24,13,20,12,5,91,63,40,0.00,40.00,16,5,35,0.00
2013-12-21,29,24,19,18,7,-100,89,49,39,0.00,40.00,16,8,33,0.00
2013-12-22,26,22,16,9,5,-1,58,47,36,0.00,40.00,15,7,34,0.00
2013-12-23,34,26,12,17,12,6,83,56,36,0.00,40.00,18,10,36,0.00
2013-12-24,35,28,20,27,13,1,90,54,37,0.00,40.00,16,9,35,0.02
2013-12-25,37,27,19,5,2,-1,47,35,25,0.00,40.00,17,11,31,0.02
2013-12-26,41,34,24,13,5,-4,39,30,21,0.00,40.00,19,10,31,0.00
2013-12-27,51,39,28,19,16,11,66,40,27,0.00,40.00,11,6,22,0.00
2013-12-28,43,35,18,20,16,-100,88,49,34,0.00,40.00,11,8,22,0.00
2013-12-29,31,22,6,18,7,-2,89,56,29,0.00,40.00,18,8,38,0.09
2013-12-30,34,29,26,12,8,5,46,40,34,0.00,40.00,15,10,43,0.05
2013-12-31,38,34,30,21,16,9,63,48,38,0.00,40.00,18,12,41,0.00
2014-1-1,32,27,19,25,13,2,89,57,39,0.00,40.00,12,6,33,0.00
2014-1-2,42,33,25,13,7,1,42,33,24,0.00,40.00,17,10,37,0.00